sat.trackr.live / text

‹ back to catalog

STARLINK-4305

NORAD 53060 · 2022-077T

PAYLOAD ACTIVE UNKNOWN

§ Identity

Operator
Country
US
Launch date
2022-07-11
Launch site
AFWTR
Launch vehicle
Mass (kg)
RCS (m²)

Purposes: comms

External: N2YO · Heavens-Above · Gunter

§ Orbital elements

Epoch: 2026-09-19T22:09:07.848864Z

Period
93.91 min
Inclination
97.2851°
Eccentricity
0.0001589
Mean motion
15.33435951 rev/d
Perigee alt
464.5 km
Apogee alt
466.7 km
Semi-major
6,843.7 km
B*
2.2815e-5
RAAN
77.7657°
Arg perigee
89.2195°
Mean anomaly
270.9230°
Rev number
23,020

§ Raw data

STARLINK-43051 53060U 22077T   26262.92300751  .00000661  00000+0  22815-4 0  99912 53060  97.2851  77.7657 0001589  89.2195 270.9230 15.33435951230203

JSON: /api/v1/satellites/53060 · /tle

For live sub-satellite position, see the globe view (requires WebGL).

§ Visibility from observer

Set your observer location to see the next 7 days of passes ≥ 10°. The values pass through the URL so the page stays shareable.

No JS? Fill the form by hand. The geolocation button needs JavaScript.